Location: Canazei
(46.4667°N, 11.7667°E)
Time: 20:31:54
(UTC+00:00)

Envisat - Pass Details

Date: 26 September 2021
Orbit: 764 x 766 km, 98.2° (Epoch: 27 October)

Event Time Altitude Azimuth Distance (km) Brightness Sun altitude
Rises 03:19:49 0° 26° (NNE) 3,242 6.9 -18.6°
Reaches altitude 10° 03:22:41 10° 42° (NE) 2,310 6.4 -18.2°
Maximum altitude 03:26:32 21° 91° (E) 1,657 5.6 -17.5°
Drops below altitude 10° 03:30:21 10° 141° (SE) 2,296 5.8 -16.9°
Sets 03:33:10 0° 157° (SSE) 3,217 6.3 -16.5°
